Regional Weather Roundup
Issued by NWS

Home | Current Version | Previous Version | Graphics & Text | Print | Product List | Glossary On
Versions: 1 2 3 4 5 6 7 8 9 10 11 12 13 14 15 16 17 18 19 20 21 22 23 24 25 26 27 28 29 30 31 32 33 34 35 36 37 38 39 40 41 42 43 44 45 46 47 48 49 50
000
ASUS43 KMKX 230811
RWRWI

WISCONSIN REGIONAL WEATHER ROUNDUP
NATIONAL WEATHER SERVICE MILWAUKEE/SULLIVAN WI
300 AM CDT SAT SEP 23 2017

NOTE: "FAIR" INDICATES FEW OR NO CLOUDS BELOW 12,000 FEET WITH NO
SIGNIFICANT WEATHER AND/OR OBSTRUCTIONS TO VISIBILITY.

WIZ001-002-006>008-014>016-023>028-230900-
NORTHWEST WISCONSIN

CITY           SKY/WX    TMP DP  RH WIND       PRES   REMARKS
SUPERIOR ARPT  CLOUDY    62  61  99 N6        29.82R
ASHLAND        CLOUDY    77  67  71 S17       29.85S
HAYWARD        CLOUDY    74  66  76 S7        29.91R
SIREN          CLOUDY    77  66  67 S7        29.88R
CUMBERLAND     CLOUDY    72  64  78 S7        29.91S
RICE LAKE      CLOUDY    72  65  80 SE7       29.93R
CHETEK           N/A     69  67  92 E3        29.92S
LADYSMITH      PTCLDY    72  66  83 S5        29.96R
EAU CLAIRE     PTCLDY    75  66  73 S7        29.91R
MENOMONIE      PTCLDY    75  65  72 S3        29.91S
NEW RICHMOND   CLEAR     75  65  70 S8        29.90R
OSCEOLA        CLOUDY    78  66  68 S12       29.90S
$$

WIZ003>005-009-010-017-018-230900-
NORTH CENTRAL WISCONSIN

CITY           SKY/WX    TMP DP  RH WIND       PRES   REMARKS
MANITOWISH WTR PTCLDY    64  64 100 S5        29.97
ARBOR VITAE    CLOUDY    72  68  86 S6        29.98R
WOODRUFF       CLOUDY    72  68  86 S6        29.98R
RHINELANDER    CLEAR     72  66  81 SW8       29.99R
EAGLE RIVER    PTCLDY    65  65  99 CALM      29.99R
LAND O LAKES   CLEAR     64  63  97 CALM      30.00R
PHILLIPS       MOCLDY    72  67  87 SW5       29.96R
TOMAHAWK       CLEAR     65  63  94 CALM      29.99R
MEDFORD        CLEAR     65  63  92 CALM      29.98R
MERRILL        CLEAR     71  66  83 S5        29.99R
$$

WIZ029-030-035-036-043>047-230900-
CENTRAL WISCONSIN

CITY           SKY/WX    TMP DP  RH WIND       PRES   REMARKS
WAUSAU         CLEAR     71  64  78 CALM      29.97S
MOSINEE        CLEAR     68  63  83 S7        30.00R
MARSHFIELD     CLEAR     70  63  78 S8        29.97R
STEVENS POINT  CLEAR     71  64  77 S8        29.99S
WAUPACA        CLEAR     68  66  95 CALM      29.99S
WAUTOMA        CLEAR     63  62  97 CALM      30.00S
WISC RAPIDS    CLEAR     72  65  78 S7        29.99S
CAMP DOUGLAS   CLEAR     69  64  84 CALM      29.97R
$$

WIZ011>013-019>022-031-037>040-048>050-230900-
NORTHEAST WISCONSIN

CITY           SKY/WX    TMP DP  RH WIND       PRES   REMARKS
ANTIGO         CLEAR     66  64  92 S3        30.02R
SHAWANO        CLEAR     71  66  84 CALM      29.98R
OCONTO         CLEAR     64  62  96 CALM      29.97S
STURGEON BAY   CLEAR     72  65  78 S8        29.99R
GREEN BAY      CLEAR     68  67  96 S3        29.99S
MANITOWOC      CLEAR     75  65  70 SW7       30.00S
APPLETON       CLEAR     72  59  64 S8        29.99S
CLINTONVILLE   CLEAR     72  63  73 SW6       29.99R
OSHKOSH        CLEAR     71  64  78 S9        30.00S
$$

WIZ032>034-041-042-053>061-230900-
SOUTHWEST WISCONSIN

CITY           SKY/WX    TMP DP  RH WIND       PRES   REMARKS
LA CROSSE      CLEAR     77  67  71 S7        29.93S
SPARTA         CLEAR     76  65  67 S10       29.96S
VIROQUA        CLEAR     72  66  81 S7        30.00S
BOSCOBEL       CLEAR     71  65  81 CALM      29.98S
PRAIRIE DU CHI PTCLDY    76  62  60 SE3       29.97S
PLATTEVILLE    CLEAR     71  66  87 SE9       30.01F
$$

WIZ056-057-062-063-064-067-068-230900-
SOUTH CENTRAL WISCONSIN

CITY           SKY/WX    TMP DP  RH WIND       PRES   REMARKS
REEDSBURG      CLEAR     73  65  74 S5        29.99S
BARABOO/DELLS  CLEAR     72  62  70 SW6       30.00S
LONE ROCK      CLEAR     66  64  93 E3        29.99F
MINERAL POINT  CLEAR     70  68  94 SE6       30.02F
MADISON        CLEAR     71  64  78 S3        30.01S
MIDDLETON      CLEAR     72  64  75 CALM      30.02S
WATERTOWN      CLEAR     68  65  88 CALM      30.01F
MONROE         CLEAR     72  63  73 S8        30.03S
JANESVILLE     CLEAR     68  61  77 CALM      30.02R
$$

WIZ051-052-058>065-066-070>072-230900-
SOUTHEAST WISCONSIN

CITY           SKY/WX    TMP DP  RH WIND       PRES   REMARKS
MILWAUKEE      CLEAR     75  67  76 SW6       30.02S
WAUKESHA       CLEAR     70  63  78 S3        30.04S
MILWAUKEE/TIMM CLEAR     70  61  73 CALM      30.03S
RACINE         CLEAR     74  67  78 SW6       30.03F
BURLINGTON     CLEAR     65  65 100 CALM      30.03S
KENOSHA        CLEAR     70  65  84 SW6       30.02F
FOND DU LAC    CLEAR     68  63  84 S6        30.00F
SHEBOYGAN      CLEAR     67  66  97 S6        30.01S
WEST BEND        N/A     66  64  94 CALM      30.03S
JUNEAU         CLEAR     68  63  84 SE5       30.03S
$$

LSZ147-162-230900-
LAKE SUPERIOR

STATION/POSITION TIME  TEMP    WIND        PRES    WAVE
                       AIR SEA DIR/SP/G            HT/PER
                 (UTC) (F)     (DEG/KT/KT) (MB)    (FT/S)
W MID LAKE BUOY  0750   63 54  230/ 10/ 12 1009.6S   2/ 5
DEVILS ISLAND    0800   70     170/  6/  8 1009.4F
SAXON HARBOR     0740   80     200/ 12/ 22 1010.2R
$$

LMZ867-665-643>646-230900-
LAKE MICHIGAN

STATION/POSITION TIME  TEMP    WIND        PRES    WAVE
                       AIR SEA DIR/SP/G            HT/PER
                 (UTC) (F)     (DEG/KT/KT) (MB)    (FT/S)
S GREEN BAY BUOY 0800   68 67  190/  4/  6 1014.9
N MID LAKE BUOY  0750   69 66  190/ 10/ 12 1015.7R   2/ 4
NORTHPORT PIER   0740   69     140/  4/  5 1014.9R
KEWAUNEE LAKESHO 0742   73     250/  5/  6 1014.6R
SHEBOYGAN LAKESH 0800   72     210/  7/  9 1015.6S
PORT WASHINGTON  0740   74     260/  4/  6 1016.9F
ATWATER BUOY     0739   72 63  200/  6/  8 1016.4F
MILWAUKEE LAKESH 0750   78     230/ 10/ 11   N/A
S MID LAKE BUOY  0750   73 70  160/  8/ 10 1016.6F   0
KENOSHA   LAKESH 0800   76     170/  6/  7 1016.3
$$

TC  - TEMPERATURE IN CELSIUS
VSB - VISIBILITY IN STATUTE MILES
WCI - WIND CHILL INDEX
HX  - HEAT INDEX




USA.gov is the U.S. government's official web portal to all federal, state and local government web resources and services.